Regional Weather Roundup
Issued by NWS Goodland, KS

Home | Current Version | Previous Version | Text Only | Print | Product List | Glossary Off
Versions: 1 2 3 4 5 6 7 8 9 10 11 12 13 14 15 16 17 18 19 20 21 22 23 24 25 26 27 28 29 30 31 32 33 34 35 36 37 38 39 40 41 42 43 44 45 46 47 48 49 50

506
ASUS43 KGLD 271608
RWRGLD

GOODLAND FORECAST AREA HOURLY WEATHER ROUNDUP
NATIONAL WEATHER SERVICE GOODLAND KS
1000 AM MDT WED JUL 27 2016

...OFFICIAL OBSERVATIONS...

CITY           SKY/WX    TMP DP  RH WIND       PRES   REMARKS
GOODLAND KS    SUNNY     76  66  71 SW7       30.13R
HILL CITY KS   PTSUNNY   79  64  60 CALM      30.06R
IMPERIAL NEB   MOSUNNY   75  61  61 W8        30.14R
MCCOOK NEB     PTSUNNY   73  62  68 N6        30.08R
AKRON CO       SUNNY     77  59  53 SW7       30.18F
BURLINGTON CO  PTSUNNY   70  63  78 S13       30.16S
LIMON CO       SUNNY     80  55  42 W9        30.21R
$$

...UNOFFICIAL OBSERVATIONS...

CITY           SKY/WX    TMP DP  RH WIND       PRES   REMARKS
COLBY KS       SUNNY     82  70  65 S3        30.12S
LENORA KS        N/A     83  32  16 MISG        N/A
NORTON KS      SUNNY     81  54  39 SW3       30.06
TRIBUNE KS     SUNNY     81  68  65 S10G17    30.12
KIT CARSON CO    N/A     72  63  72 CALM        N/A
YUMA CO          N/A     72  63  72 E7          N/A
$$




USA.gov is the U.S. government's official web portal to all federal, state and local government web resources and services.